| time (UTC) | temp F | wind direction | speed MPH | gust MPH | rain 1hr in | rain 24hr in | rain mn in | humidity % | barometer mb |
| 20260504081538 | 40 | 0 | 0.0 | 1.0 | 0.00 | 0.00 | 0.00 | 73 | 1013.8 |
| 20260504044543 | 42 | 0 | 0.0 | 1.0 | 0.00 | 0.00 | 0.00 | 66 | 1013.7 |
| 20260504043039 | 42 | 0 | 0.0 | 1.0 | 0.00 | 0.00 | 0.00 | 65 | 1013.7 |
| 20260504041545 | 43 | 0 | 0.0 | 1.0 | 0.00 | 0.00 | 0.00 | 64 | 1013.6 |
| 20260504040100 | 43 | 0 | 0.0 | 0.0 | 0.00 | 0.00 | 0.00 | 63 | 1013.4 |
| 20260504034546 | 44 | 0 | 0.0 | 0.0 | 0.00 | 0.00 | 0.00 | 63 | 1013.2 |
| 20260504033043 | 44 | 0 | 0.0 | 1.0 | 0.00 | 0.00 | 0.00 | 61 | 1013.1 |
| 20260504031541 | 45 | 0 | 0.0 | 1.0 | 0.00 | 0.00 | 0.00 | 59 | 1013.2 |
| 20260504030038 | 46 | 0 | 0.0 | 0.0 | 0.00 | 0.00 | 0.00 | 56 | 1013.1 |
| 20260504024539 | 47 | 0 | 0.0 | 1.0 | 0.00 | 0.00 | 0.00 | 53 | 1013.2 |
| 20260504023048 | 49 | 0 | 0.0 | 3.0 | 0.00 | 0.00 | 0.00 | 51 | 1013.1 |
| 20260504021540 | 49 | 0 | 0.0 | 2.0 | 0.00 | 0.00 | 0.00 | 47 | 1013.1 |
| 20260504020038 | 50 | 0 | 0.0 | 2.0 | 0.00 | 0.00 | 0.00 | 46 | 1013.1 |
| 20260504014550 | 51 | 326 | 0.0 | 4.0 | 0.00 | 0.00 | 0.00 | 45 | 1013.0 |
| 20260504013046 | 51 | 148 | 0.0 | 1.0 | 0.00 | 0.00 | 0.00 | 45 | 1012.9 |
| 20260504011543 | 52 | 0 | 0.0 | 4.0 | 0.00 | 0.00 | 0.00 | 43 | 1012.9 |
| 20260504010050 | 53 | 295 | 0.0 | 3.0 | 0.00 | 0.00 | 0.00 | 42 | 1012.7 |
| 20260504004552 | 53 | 317 | 1.0 | 3.0 | 0.00 | 0.00 | 0.00 | 40 | 1012.4 |
| 20260504003055 | 55 | 311 | 1.0 | 12.0 | 0.00 | 0.00 | 0.00 | 38 | 1012.2 |
| 20260504001601 | 55 | 281 | 2.0 | 8.0 | 0.00 | 0.00 | 0.00 | 38 | 1012.0 |
| 20260504000047 | 56 | 278 | 2.0 | 4.0 | 0.00 | 0.00 | 0.00 | 36 | 1011.9 |
| 20260503234539 | 56 | 300 | 3.0 | 9.0 | 0.00 | 0.00 | 0.00 | 35 | 1011.8 |
| 20260503233047 | 58 | 279 | 1.0 | 6.0 | 0.00 | 0.00 | 0.00 | 34 | 1011.5 |
| 20260503231548 | 59 | 300 | 5.0 | 9.0 | 0.00 | 0.00 | 0.00 | 32 | 1011.6 |
| 20260503230045 | 59 | 278 | 3.0 | 16.0 | 0.00 | 0.00 | 0.00 | 32 | 1011.5 |
| 20260503224545 | 60 | 288 | 3.0 | 8.0 | 0.00 | 0.00 | 0.00 | 31 | 1011.4 |
| 20260503223039 | 59 | 300 | 3.0 | 10.0 | 0.00 | 0.00 | 0.00 | 32 | 1011.3 |
| 20260503221539 | 58 | 288 | 3.0 | 13.0 | 0.00 | 0.00 | 0.00 | 33 | 1011.4 |
| 20260503220045 | 58 | 335 | 4.0 | 11.0 | 0.00 | 0.00 | 0.00 | 31 | 1011.3 |
| 20260503214541 | 58 | 341 | 6.0 | 13.0 | 0.00 | 0.00 | 0.00 | 32 | 1011.4 |
| 20260503213038 | 58 | 298 | 5.0 | 14.0 | 0.00 | 0.00 | 0.00 | 31 | 1011.3 |
| 20260503211538 | 59 | 310 | 3.0 | 21.0 | 0.00 | 0.00 | 0.00 | 30 | 1011.3 |
| 20260503210037 | 59 | 19 | 5.0 | 12.0 | 0.00 | 0.00 | 0.00 | 30 | 1011.1 |
| 20260503204545 | 59 | 338 | 4.0 | 14.0 | 0.00 | 0.00 | 0.00 | 31 | 1011.2 |
| 20260503203048 | 58 | 259 | 6.0 | 18.0 | 0.00 | 0.00 | 0.00 | 30 | 1011.3 |
| 20260503201546 | 58 | 277 | 4.0 | 14.0 | 0.00 | 0.00 | 0.00 | 31 | 1011.4 |
| 20260503200051 | 58 | 45 | 6.0 | 25.0 | 0.00 | 0.00 | 0.00 | 31 | 1011.5 |
| 20260503194544 | 58 | 267 | 6.0 | 11.0 | 0.00 | 0.00 | 0.00 | 32 | 1011.6 |
| 20260503193047 | 57 | 308 | 9.0 | 21.0 | 0.00 | 0.00 | 0.00 | 31 | 1011.9 |
| 20260503191539 | 56 | 266 | 7.0 | 20.0 | 0.00 | 0.00 | 0.00 | 33 | 1012.1 |
| 20260503190042 | 55 | 293 | 8.0 | 21.0 | 0.00 | 0.00 | 0.00 | 32 | 1012.1 |
| 20260503184538 | 55 | 328 | 7.0 | 18.0 | 0.00 | 0.00 | 0.00 | 34 | 1012.4 |
| 20260503183053 | 54 | 310 | 4.0 | 19.0 | 0.00 | 0.00 | 0.00 | 34 | 1012.7 |
| 20260503181554 | 54 | 274 | 7.0 | 17.0 | 0.00 | 0.00 | 0.00 | 34 | 1012.6 |
| 20260503180048 | 54 | 314 | 8.0 | 18.0 | 0.00 | 0.00 | 0.00 | 35 | 1012.9 |
| 20260503174537 | 53 | 343 | 6.0 | 18.0 | 0.00 | 0.00 | 0.00 | 35 | 1012.7 |
| 20260503173050 | 53 | 65 | 2.0 | 17.0 | 0.00 | 0.00 | 0.00 | 36 | 1012.7 |
| 20260503171540 | 53 | 309 | 9.0 | 20.0 | 0.00 | 0.00 | 0.00 | 36 | 1013.0 |